This is the latest recevied weather packets stored in our database for station/object N4TLC. If no packets are shown the sender has not sent any weather packets the latest 10 day(s).
| Time | Temp. | Humidity | Pressure | Rain* | Wind** | Luminosity | Snow |
|---|---|---|---|---|---|---|---|
| 1776963201 | 26.11° C | 32% | 1019.2 hPa | 0 mm | - | 86 W/m² | - |
| 1776962897 | 26.67° C | 32% | 1019.3 hPa | 0 mm | - | 88 W/m² | - |
| 1776962593 | 26.67° C | 32% | 1019.3 hPa | 0 mm | - | 894 W/m² | - |
| 1776962292 | 26.67° C | 32% | 1019.4 hPa | 0 mm | - | 961 W/m² | - |
| 1776961987 | 26.67° C | 33% | 1019.4 hPa | 0 mm | - | 955 W/m² | - |
| 1776961687 | 26.11° C | 35% | 1019.7 hPa | 0 mm | - | 956 W/m² | - |
| 1776961384 | 26.11° C | 34% | 1019.7 hPa | 0 mm | - | 954 W/m² | - |
| 1776961080 | 26.11° C | 34% | 1019.8 hPa | 0 mm | - | 934 W/m² | - |
| 1776960775 | 26.11° C | 34% | 1019.8 hPa | 0 mm | - | 931 W/m² | - |
| 1776960471 | 26.11° C | 35% | 1020.1 hPa | 0 mm | - | 923 W/m² | - |
| 1776960170 | 25.56° C | 33% | 1019.9 hPa | 0 mm | - | 919 W/m² | - |
| 1776959866 | 25.56° C | 34% | 1020 hPa | 0 mm | - | 906 W/m² | - |
| 1776959562 | 25.56° C | 34% | 1020 hPa | 0 mm | - | 897 W/m² | - |
| 1776959259 | 25.56° C | 33% | 1020 hPa | 0 mm | - | 887 W/m² | - |
| 1776958955 | 25.56° C | 34% | 1020.1 hPa | 0 mm | - | 875 W/m² | - |
| 1776958654 | 25.56° C | 34% | 1020.1 hPa | 0 mm | - | 869 W/m² | - |
| 1776958352 | 25.56° C | 34% | 1020.3 hPa | 0 mm | - | 181 W/m² | - |
| 1776958048 | 25° C | 35% | 1020.2 hPa | 0 mm | - | 84 W/m² | - |
| 1776957743 | 25° C | 35% | 1020.3 hPa | 0 mm | - | 81 W/m² | - |
| 1776957438 | 25° C | 35% | 1020.3 hPa | 0 mm | - | 87 W/m² | - |
| 1776957135 | 25° C | 35% | 1020.5 hPa | 0 mm | - | 68 W/m² | - |
| 1776956834 | 25° C | 35% | 1020.5 hPa | 0 mm | - | 67 W/m² | - |
| 1776956528 | 25° C | 36% | 1020.3 hPa | 0 mm | - | 66 W/m² | - |
| 1776956227 | 25° C | 36% | 1020.6 hPa | 0 mm | - | 65 W/m² | - |
| 1776955922 | 24.44° C | 37% | 1020.3 hPa | 0 mm | - | 63 W/m² | - |
* Rain latest hour (hover to see other rain measurements)
** Current wind speed in m/s (hover to see current wind gust speed)